Terminal Aerodrome Forecast
Issued by NWS Omaha/Valley, NE

Home | Current Version | Previous Version | Graphics & Text | Print | Product List | Glossary On
Versions: 1 2 3 4 5 6 7 8 9 10 11 12 13 14 15 16 17 18 19 20 21 22 23 24 25 26 27 28 29 30 31 32 33 34 35 36 37 38 39 40 41 42 43 44 45 46 47 48 49 50
000
FTUS43 KOAX 021101 AAC
TAFOFK
TAF AMD
KOFK 021101Z 0211/0306 10005KT 3SM -RA BKN012 OVC018
      TEMPO 0211/0212 2SM -TSRA OVC005CB
     FM021400 12009KT 5SM -SHRA BR OVC015
      TEMPO 0215/0218 3SM -TSRA BR OVC012CB
     FM022000 07007KT P6SM OVC040=

USA.gov is the U.S. government's official web portal to all federal, state and local government web resources and services.